Location: Cudham
(51.3000°N, 0.0667°E)
Time: 00:39:55
(UTC+00:00)

ISS - Pass Details

Date: 15 May 2026
Orbit: 413 x 422 km, 51.6° (Epoch: 9 June)

Event Time Altitude Azimuth Distance (km) Brightness Sun altitude
Rises 21:20:43 0° 274° (W) 2,350 0.7 -11.9°
Reaches altitude 10° 21:22:49 10° 275° (W) 1,488 -0.4 -12.1°
Maximum altitude 21:26:09 84° 3° (N) 422 -3.8 -12.4°
Enters shadow 21:29:20 11° 93° (E) 1,417 -1.4 -12.7°
